STARLINK-34116, 63890

Orbit data source: Space-Track

STARLINK-34116, 63890 is a payload satellite owned by SpaceX/Seattle (US) in LEO that was launched on Sat, 10 May 2025 UTC via an FALCON 9 launch vehicle from the Air Force Eastern Test Range (AFETR). Payload-class satellites include a variety of spacecraft equipped with specific instruments for various scientific and technological missions. These include communications satellites like Starlink; space stations such as the ISS; scientific satellites like the Hubble; Earth observation satellites from companies like Planet Labs, Umbra, and HawkEye 360; GPS; miniature CubeSats for education and research; and military/defense satellites.

Loading next visibility...
Identifier
63890, 2025-095A
Orbit
LEO
Country
Flag of USUS
Related business
Manufacturer
SpaceX/Seattle
Mission
Operational Commercial Communications
Bus & Motor
STARLINK V2MO, Unknown motor
Mass
575 kg wet, ~530 kg dry
Launch date (UTC)
2025-05-10 (1 year ago)
Launch vehicle
FALCON 9
Launch site
Air Force Eastern Test Range (AFETR)
Object type
Payload
Rocket body
Debris
Shape & HBR
Box + 2 Pan, 17.7 m
Radar Cross Section
36.964 m², Large (>1 m²)

Expand to show TLE details & history
Last TLE update: 9 hours ago

TLE from 9 hours ago
0 STARLINK-34116
1 63890U 25095A   26171.46233448  .00012206  00000-0  45219-3 0  9993
2 63890  43.0047 315.9837 0002055 277.8815  82.1803 15.27590342 63506
Epoch: 2026-06-20T11:05Z
TLE epoch observation values (Epoch: 2026-06-20T11:05:45.699Z)
Latitude
-0.00003°
Longitude
-119.13335°
Altitude
482.603 km
Speed
7.626 km/s
True Right ascension
21h 03m 56s
True Declination
0° 00' 00"
Sunlit
Object was in full shadow at epoch
Visualization orbit readout
Latitude
Unknown
Longitude
Unknown
Altitude
Unknown
Speed
Unknown
Apparent Right ascension
Unknown
Apparent Declination
Unknown
Sunlit
N/A
Visualization observer readout
Local Sidereal Time
07:17:43
Azimuth
Unknown
Elevation
Unknown
Doppler factor
Unknown
Orbital elements
Apogee altitude
486.373 km
Perigee altitude
483.552 km
Semi-major axis
6,863.1 km
Eccentricity
0.00021
Inclination
43.0047°
RAAN
315.9837°
Arg. of periapsis
277.8815°
True anomaly
82.20363°
Mean anomaly
82.1803°
Eccentric anomaly
82.19197°
Mean motion
3.81736 °/min
Orbital period
94.31 mins
BSTAR
0.00045219
Loading maneuver chart data...
Computing Atmospheric mass density...
Loading historical data...
Loading historical data...
Loading historical data...
Loading historical data...
Loading historical data...
Loading historical data...
Loading historical data...

Documentation

Showing up to 5 results
|